GW0177 Weather Reports


Display with metric or nautical units.
time (UTC)temp
F
wind
direction
speed
MPH
gust
MPH
rain 1hr
in
rain 24hr
in
rain mn
in
humidity
%
barometer
mb
20260906214540 83 0 0.0 1.0 0.00 0.00 0.00 39 1017.9
20260906213044 83 0 0.0 2.0 0.00 0.00 0.00 39 1018.4
20260906211540 84 120 0.0 1.0 0.00 0.00 0.00 38 1018.6
20260906210052 84 332 0.0 3.0 0.00 0.00 0.00 37 1018.7
20260906204534 85 0 0.0 1.0 0.00 0.00 0.00 36 1018.7
20260906203037 86 122 0.0 3.0 0.00 0.00 0.00 33 1019.0
20260906201535 87 0 0.0 2.0 0.00 0.00 0.00 34 1019.2
20260906200045 88 0 0.0 2.0 0.00 0.00 0.00 34 1019.3
20260906194538 87 236 0.0 1.0 0.00 0.00 0.00 32 1019.3
20260906193037 87 0 0.0 2.0 0.00 0.00 0.00 34 1019.3
20260906191535 87 0 0.0 3.0 0.00 0.00 0.00 32 1019.7
20260906190038 87 0 0.0 1.0 0.00 0.00 0.00 33 1020.0
20260906184535 86 0 0.0 1.0 0.00 0.00 0.00 35 1020.3
20260906183039 84 229 0.0 1.0 0.00 0.00 0.00 36 1020.6
20260906181541 82 0 0.0 3.0 0.00 0.00 0.00 39 1021.1
20260906180040 81 0 0.0 1.0 0.00 0.00 0.00 40 1021.5
20260906174538 80 0 0.0 1.0 0.00 0.00 0.00 40 1021.9
20260906173032 78 0 0.0 2.0 0.00 0.00 0.00 41 1022.1
20260906171537 77 267 0.0 1.0 0.00 0.00 0.00 41 1022.2
20260906170042 75 0 0.0 1.0 0.00 0.00 0.00 43 1022.3
20260906164542 74 0 0.0 0.0 0.00 0.00 0.00 46 1022.4
20260906163044 73 0 0.0 0.0 0.00 0.00 0.00 49 1022.6
20260906161539 72 131 0.0 1.0 0.00 0.00 0.00 51 1022.8
20260906160047 70 0 0.0 0.0 0.00 0.00 0.00 56 1022.7
20260906154537 68 0 0.0 1.0 0.00 0.00 0.00 56 1022.5
20260906153043 67 0 0.0 0.0 0.00 0.00 0.00 65 1022.6
20260906151537 65 0 0.0 0.0 0.00 0.00 0.00 68 1022.6
20260906150051 64 0 0.0 0.0 0.00 0.00 0.00 72 1022.7
20260906144543 61 0 0.0 0.0 0.00 0.00 0.00 77 1022.6
20260906143038 58 0 0.0 0.0 0.00 0.00 0.00 80 1022.7
20260906141537 57 0 0.0 0.0 0.00 0.00 0.00 81 1022.9
20260906140036 56 0 0.0 0.0 0.00 0.00 0.00 81 1022.8
20260906134533 56 0 0.0 0.0 0.00 0.00 0.00 80 1022.5
20260906133036 55 0 0.0 0.0 0.00 0.00 0.00 80 1022.3
20260906131538 55 0 0.0 0.0 0.00 0.00 0.00 80 1022.2
20260906130045 55 0 0.0 0.0 0.00 0.00 0.00 78 1022.3
20260906124535 55 0 0.0 0.0 0.00 0.00 0.00 78 1022.2
20260906123037 55 0 0.0 0.0 0.00 0.00 0.00 78 1022.0
20260906121535 56 0 0.0 0.0 0.00 0.00 0.00 78 1022.1
20260906120046 55 0 0.0 0.0 0.00 0.00 0.00 77 1022.0
20260906114538 55 0 0.0 0.0 0.00 0.00 0.00 77 1022.1
20260906113035 56 0 0.0 0.0 0.00 0.00 0.00 77 1021.9
20260906111536 56 0 0.0 0.0 0.00 0.00 0.00 76 1021.9
20260906110040 56 0 0.0 0.0 0.00 0.00 0.00 76 1021.9
20260906104535 56 0 0.0 0.0 0.00 0.00 0.00 77 1021.7
20260906103035 56 0 0.0 0.0 0.00 0.00 0.00 75 1021.9
20260906101533 57 0 0.0 0.0 0.00 0.00 0.00 75 1021.6
20260906100031 57 0 0.0 0.0 0.00 0.00 0.00 74 1021.6
20260906094557 57 0 0.0 0.0 0.00 0.00 0.00 74 1021.7
20260906093038 57 0 0.0 0.0 0.00 0.00 0.00 74 1021.7
20260906091541 58 0 0.0 0.0 0.00 0.00 0.00 73 1021.7
20260906090034 58 0 0.0 0.0 0.00 0.00 0.00 74 1021.6
20260906084539 59 0 0.0 0.0 0.00 0.00 0.00 72 1021.4
20260906083038 59 0 0.0 0.0 0.00 0.00 0.00 72 1021.6
20260906081544 60 0 0.0 0.0 0.00 0.00 0.00 71 1021.7
20260906080038 61 0 0.0 0.0 0.00 0.00 0.00 70 1021.8
20260906074534 62 0 0.0 0.0 0.00 0.00 0.00 68 1021.8
20260906073037 63 0 0.0 0.0 0.00 0.00 0.00 65 1021.8
20260906071537 65 0 0.0 0.0 0.00 0.00 0.00 64 1021.7
20260906070035 66 0 0.0 0.0 0.00 0.00 0.00 58 1021.4
20260906064533 67 0 0.0 0.0 0.00 0.00 0.00 57 1021.5
20260906063037 68 0 0.0 0.0 0.00 0.00 0.00 54 1021.5
20260906061538 69 0 0.0 0.0 0.00 0.00 0.00 56 1021.5
20260906060036 69 0 0.0 1.0 0.00 0.00 0.00 52 1021.6
20260906054537 70 0 0.0 1.0 0.00 0.00 0.00 52 1021.8
20260906053035 68 0 0.0 1.0 0.00 0.00 0.00 56 1021.7
20260906051532 67 0 0.0 0.0 0.00 0.00 0.00 78 1021.7
20260906050038 68 0 0.0 0.0 0.00 0.00 0.00 77 1021.7
20260906044538 67 0 0.0 0.0 0.00 0.00 0.00 77 1021.7
20260906043043 67 0 0.0 1.0 0.00 0.00 0.00 77 1021.8
20260906041538 67 0 0.0 0.0 0.00 0.00 0.00 77 1021.9
20260906040037 67 0 0.0 1.0 0.00 0.00 0.00 74 1021.9
20260906034542 70 0 0.0 0.0 0.00 0.00 0.00 64 1021.9
20260906033035 74 0 0.0 0.0 0.00 0.00 0.00 49 1021.7
20260906031546 73 305 0.0 1.0 0.00 0.00 0.00 39 1021.3
20260906030034 71 0 0.0 0.0 0.00 0.00 0.00 39 1020.7
20260906024533 71 0 0.0 0.0 0.00 0.00 0.00 40 1020.5
20260906023034 71 0 0.0 0.0 0.00 0.00 0.00 40 1020.3
20260906021537 72 0 0.0 0.0 0.00 0.00 0.00 38 1020.3
20260906020049 74 0 0.0 0.0 0.00 0.00 0.00 37 1020.0
20260906014537 75 0 0.0 0.0 0.00 0.00 0.00 36 1020.0
20260906013055 76 0 0.0 0.0 0.00 0.00 0.00 36 1019.9
20260906011535 78 0 0.0 0.0 0.00 0.00 0.00 33 1019.7
20260906010033 80 0 0.0 0.0 0.00 0.00 0.00 32 1019.9
20260906004535 81 0 0.0 0.0 0.00 0.00 0.00 30 1019.9
20260906003034 82 0 0.0 0.0 0.00 0.00 0.00 28 1019.9
20260906001534 83 0 0.0 0.0 0.00 0.00 0.00 28 1019.8
20260906000035 84 0 0.0 0.0 0.00 0.00 0.00 29 1019.7
20260905234538 85 0 0.0 0.0 0.00 0.00 0.00 27 1019.7
20260905233041 85 0 0.0 2.0 0.00 0.00 0.00 28 1019.6
20260905231541 84 0 0.0 0.0 0.00 0.00 0.00 27 1019.6
20260905230036 85 0 0.0 0.0 0.00 0.00 0.00 27 1019.7
20260905224533 85 296 0.0 1.0 0.00 0.00 0.00 25 1019.6
20260905223040 85 0 0.0 1.0 0.00 0.00 0.00 25 1019.8
20260905221544 85 0 0.0 0.0 0.00 0.00 0.00 29 1019.9
20260905220035 85 0 0.0 0.0 0.00 0.00 0.00 27 1019.9